Flag for Germany Weather past 2 weeks in Dessau-Rosslau, Saxony-Anhalt, Germany

50 °F


Feels Like: 45 °F
Forecast: 34 / 47 °F
Wind: 14 mph from Northeast

Location: Leipzig-Schkeuditz

Current Time: Oct 10, 2015 at 3:44:44 PM

Latest Report: Oct 10, 2015 at 3:20 PM

Visibility: 10 mi

Pressure: 30.12 "Hg

Humidity: 58%

Dew point: 36 °F

Location of Dessau-RosslauLocation

Historic Weather in Dessau-Rosslau — Graph


Dessau-Rosslau temperature yesterday

Maximum temperature yesterday: 54 °F (at 2:20 PM)
Minimum temperature yesterday: 46 °F (at 7:20 AM)
Average temperature yesterday: 49 °F

Past Weeks' High & Low Weather Summary

High68 °F (Oct 3, 3:20 PM)100% (Sep 26, 7:50 AM)30.66 "Hg (Sep 26, 7:50 AM)
Low37 °F (Oct 1, 7:20 AM)42% (Oct 1, 4:50 PM)29.74 "Hg (Oct 6, 2:50 PM)
Average54 °F82%30.22 "Hg
* Reported Sep 25 2:20 PM — Oct 10 2:20 PM, Dessau-Rosslau, Weather by CustomWeather, © 2015

Note: Actual official high and low records may vary slightly from our data, if they occured in-between our weather recording intervals... More about our weather records


Dessau-Rosslau weather history for previous 24 hours

Time TempWeatherWind HumidityBarometerVisibility
2:20 PM
Sat, Oct 10
50 °FSunny.14 mph62%30.15 "Hg10 mi
1:50 PM50 °FSunny.14 mph62%30.15 "Hg10 mi
1:20 PM50 °FSunny.14 mph58%30.15 "Hg10 mi
12:50 PM48 °FSunny.12 mph71%30.15 "Hg10 mi
12:20 PM46 °FSunny.12 mph76%30.18 "Hg10 mi
11:50 AM45 °FSunny.10 mph71%30.18 "Hg10 mi
11:20 AM45 °FSunny.12 mph71%30.18 "Hg10 mi
10:50 AM41 °FPartly sunny.9 mph76%30.18 "HgN/A
10:20 AM41 °FPartly sunny.9 mph76%30.18 "HgN/A
9:50 AM39 °FPartly sunny.12 mph81%30.18 "HgN/A
9:20 AM39 °FBroken clouds.10 mph81%30.18 "HgN/A
8:50 AM37 °FBroken clouds.10 mph87%30.18 "HgN/A
8:20 AM37 °FPartly cloudy.10 mph87%30.18 "HgN/A
7:50 AM37 °FPassing clouds.8 mph87%30.18 "HgN/A
7:20 AM39 °FPartly cloudy.10 mph81%30.18 "HgN/A
6:50 AM39 °FClear.8 mph81%30.18 "Hg10 mi
6:20 AM39 °FClear.9 mph81%30.18 "Hg10 mi
5:50 AM39 °FClear.9 mph81%30.18 "Hg10 mi
5:20 AM39 °FClear.7 mph81%30.18 "Hg10 mi
4:50 AM39 °FClear.8 mph81%30.18 "Hg10 mi
4:20 AM39 °FClear.7 mph81%30.18 "Hg10 mi
3:50 AM39 °FClear.6 mph87%30.18 "Hg10 mi
3:20 AM39 °FClear.7 mph87%30.18 "Hg10 mi
2:50 AM41 °FClear.8 mph81%30.18 "Hg10 mi
2:20 AM41 °FClear.8 mph87%30.18 "Hg10 mi
1:50 AM43 °FPassing clouds.9 mph81%30.18 "HgN/A
1:20 AM45 °FOvercast.9 mph76%30.18 "HgN/A
12:50 AM46 °FOvercast.8 mph76%30.18 "HgN/A
12:20 AM46 °FOvercast.8 mph76%30.18 "HgN/A
11:20 PM
Fri, Oct 9
48 °FOvercast.9 mph82%30.18 "HgN/A
10:50 PM48 °FOvercast.9 mph87%30.18 "HgN/A
10:20 PM48 °FOvercast.7 mph87%30.18 "HgN/A
9:50 PM48 °FOvercast.7 mph94%30.18 "HgN/A
9:20 PM48 °FOvercast.7 mph94%30.18 "Hg6 mi
8:50 PM46 °FOvercast.7 mph93%30.18 "Hg6 mi
8:20 PM46 °FDrizzle. Overcast.7 mph100%30.18 "Hg4 mi
7:50 PM46 °FDrizzle. Low clouds.8 mph100%30.18 "Hg4 mi
7:20 PM46 °FDrizzle. More clouds than sun.9 mph100%30.18 "Hg3 mi
6:50 PM46 °FDrizzle. More clouds than sun.10 mph100%30.18 "Hg3 mi
6:20 PM48 °FDrizzle. Fog.10 mph94%30.18 "Hg3 mi
5:50 PM48 °FDrizzle. Broken clouds.12 mph94%30.15 "Hg4 mi
5:20 PM50 °FPartly sunny.10 mph88%30.15 "Hg4 mi
4:20 PM50 °FPartly sunny.12 mph94%30.15 "Hg4 mi
3:50 PM52 °FPartly sunny.8 mph88%30.15 "Hg5 mi
3:20 PM54 °FPartly sunny.9 mph82%30.15 "Hg5 mi
Weather by CustomWeather, © 2015

See weather overviewHow to use our weather pages